Time,TemperatureF,DewpointF,PressureIn,WindDirection,WindDirectionDegrees,WindSpeedMPH,WindSpeedGustMPH,Humidity,HourlyPrecipIn,Conditions,Clouds,dailyrainin,SoftwareType,DateUTC
2013-03-09 00:00:00,35.2,-5.2,29.71,NNW,342,0.0,0.0,17,-99.99,,---,-99.99,VWS V14.01,2013-03-09 05:00:00,
2013-03-09 00:01:00,35.2,-5.2,29.71,NW,321,0.0,3.1,17,-99.99,,---,-99.99,VWS V14.01,2013-03-09 05:01:00,
2013-03-09 00:02:00,35.2,-5.2,29.71,North,3,4.0,4.0,17,-99.99,,---,-99.99,VWS V14.01,2013-03-09 05:02:00,
2013-03-09 00:08:00,35.4,-5.1,29.71,North,2,0.0,5.8,17,-99.99,,---,-99.99,VWS V14.01,2013-03-09 05:08:00,
2013-03-09 00:13:00,35.4,-5.1,29.71,NNW,335,0.0,4.0,17,-99.99,,---,-99.99,VWS V14.01,2013-03-09 05:13:00,
2013-03-09 00:18:00,35.2,-5.2,29.71,NNW,346,4.0,5.4,17,-99.99,,---,-99.99,VWS V14.01,2013-03-09 05:18:00,
2013-03-09 00:23:00,35.1,-5.3,29.71,North,349,5.4,8.3,17,-99.99,,---,-99.99,VWS V14.01,2013-03-09 05:23:00,
2013-03-09 00:28:00,35.1,-5.3,29.68,North,357,5.4,6.7,17,-99.99,,---,-99.99,VWS V14.01,2013-03-09 05:28:00,
2013-03-09 00:33:00,35.4,-5.1,29.68,NW,312,7.6,8.3,17,-99.99,,---,-99.99,VWS V14.01,2013-03-09 05:33:00,
2013-03-09 00:38:00,35.2,-5.2,29.68,NW,317,5.4,8.1,17,-99.99,,---,-99.99,VWS V14.01,2013-03-09 05:38:00,
2013-03-09 00:43:00,35.1,-5.3,29.71,NW,306,3.6,5.4,17,-99.99,,---,-99.99,VWS V14.01,2013-03-09 05:43:00,
2013-03-09 00:49:00,35.1,-5.3,29.71,NNW,342,4.0,5.4,17,-99.99,,---,-99.99,VWS V14.01,2013-03-09 05:49:00,
2013-03-09 00:54:00,35.1,-5.3,29.71,North,353,5.4,5.8,17,-99.99,,---,-99.99,VWS V14.01,2013-03-09 05:54:00,
2013-03-09 00:59:00,35.1,-5.3,29.71,NW,318,6.3,6.3,17,-99.99,,---,-99.99,VWS V14.01,2013-03-09 05:59:00,
2013-03-09 01:04:00,35.1,-5.3,29.71,NW,310,5.4,7.2,17,-99.99,,---,-99.99,VWS V14.01,2013-03-09 06:04:00,
2013-03-09 01:09:00,34.9,-5.5,29.71,NNW,331,4.9,4.9,17,-99.99,,---,-99.99,VWS V14.01,2013-03-09 06:09:00,
2013-03-09 01:14:00,34.9,-5.5,29.68,NW,326,0.0,0.0,17,-99.99,,---,-99.99,VWS V14.01,2013-03-09 06:14:00,
2013-03-09 01:19:00,34.9,-5.5,29.68,NNW,340,2.7,2.7,17,-99.99,,---,-99.99,VWS V14.01,2013-03-09 06:19:00,
2013-03-09 01:24:00,34.9,-5.5,29.68,NNW,336,5.8,6.7,17,-99.99,,---,-99.99,VWS V14.01,2013-03-09 06:24:00,
2013-03-09 01:29:00,34.7,-5.6,29.71,NNW,329,5.4,5.8,17,-99.99,,---,-99.99,VWS V14.01,2013-03-09 06:29:00,
2013-03-09 01:34:00,34.5,-5.8,29.71,NW,326,3.6,5.4,17,-99.99,,---,-99.99,VWS V14.01,2013-03-09 06:34:00,
2013-03-09 01:39:00,34.3,-5.9,29.71,NNW,327,5.8,5.8,17,-99.99,,---,-99.99,VWS V14.01,2013-03-09 06:39:00,
2013-03-09 01:44:00,34.3,-5.9,29.71,NW,325,4.5,4.5,17,-99.99,,---,-99.99,VWS V14.01,2013-03-09 06:44:00,
2013-03-09 01:49:00,34.3,-5.9,29.71,NNW,341,0.0,0.0,17,-99.99,,---,-99.99,VWS V14.01,2013-03-09 06:49:00,
2013-03-09 01:54:00,34.3,-5.9,29.71,NNW,330,3.1,3.6,17,-99.99,,---,-99.99,VWS V14.01,2013-03-09 06:54:00,
2013-03-09 01:59:00,34.3,-5.9,29.71,NNW,336,5.8,6.3,17,-99.99,,---,-99.99,VWS V14.01,2013-03-09 06:59:00,
2013-03-09 02:04:00,34.5,-5.8,29.71,NW,309,5.4,5.4,17,-99.99,,---,-99.99,VWS V14.01,2013-03-09 07:04:00,
2013-03-09 02:09:00,34.5,-5.8,29.71,NW,325,4.0,5.4,17,-99.99,,---,-99.99,VWS V14.01,2013-03-09 07:09:00,
2013-03-09 02:15:00,34.3,-5.9,29.68,NNW,348,5.4,6.3,17,-99.99,,---,-99.99,VWS V14.01,2013-03-09 07:15:00,
2013-03-09 02:20:00,34.3,-5.9,29.68,NNW,341,3.6,5.8,17,-99.99,,---,-99.99,VWS V14.01,2013-03-09 07:20:00,
2013-03-09 02:25:00,34.3,-5.9,29.68,NNW,339,4.9,5.8,17,-99.99,,---,-99.99,VWS V14.01,2013-03-09 07:25:00,
2013-03-09 02:30:00,34.2,-6.1,29.68,NNW,335,6.3,6.3,17,-99.99,,---,-99.99,VWS V14.01,2013-03-09 07:30:00,
2013-03-09 02:35:00,34.0,-6.2,29.68,NNW,327,5.4,5.4,17,-99.99,,---,-99.99,VWS V14.01,2013-03-09 07:35:00,
2013-03-09 02:40:00,33.8,-6.4,29.68,NW,326,4.0,6.3,17,-99.99,,---,-99.99,VWS V14.01,2013-03-09 07:40:00,
2013-03-09 02:45:00,33.8,-6.4,29.68,NW,315,3.1,3.6,17,-99.99,,---,-99.99,VWS V14.01,2013-03-09 07:45:00,
2013-03-09 02:50:00,33.8,-6.4,29.68,WNW,296,0.0,0.0,17,-99.99,,---,-99.99,VWS V14.01,2013-03-09 07:50:00,
2013-03-09 02:55:00,33.4,-5.5,29.68,NW,318,4.0,5.8,18,-99.99,,---,-99.99,VWS V14.01,2013-03-09 07:55:00,
2013-03-09 03:00:00,33.4,-5.5,29.68,NW,319,4.9,5.8,18,-99.99,,---,-99.99,VWS V14.01,2013-03-09 08:00:00,
2013-03-09 03:05:00,33.4,-5.5,29.68,WNW,303,5.4,5.8,18,-99.99,,---,-99.99,VWS V14.01,2013-03-09 08:05:00,
2013-03-09 03:10:00,33.3,-5.7,29.68,NW,307,3.1,5.4,18,-99.99,,---,-99.99,VWS V14.01,2013-03-09 08:10:00,
2013-03-09 03:15:00,33.4,-5.5,29.71,NW,306,6.3,6.3,18,-99.99,,---,-99.99,VWS V14.01,2013-03-09 08:15:00,
2013-03-09 03:20:00,33.4,-5.5,29.71,NW,304,6.3,6.3,18,-99.99,,---,-99.99,VWS V14.01,2013-03-09 08:20:00,
2013-03-09 03:25:00,33.4,-5.5,29.71,NW,326,5.8,6.3,18,-99.99,,---,-99.99,VWS V14.01,2013-03-09 08:25:00,
2013-03-09 03:30:00,33.4,-5.5,29.71,NW,322,3.6,5.8,18,-99.99,,---,-99.99,VWS V14.01,2013-03-09 08:30:00,
2013-03-09 03:36:00,33.4,-5.5,29.71,NNW,328,5.8,6.3,18,-99.99,,---,-99.99,VWS V14.01,2013-03-09 08:36:00,
2013-03-09 03:41:00,33.6,-5.3,29.71,NNW,329,5.8,6.3,18,-99.99,,---,-99.99,VWS V14.01,2013-03-09 08:41:00,
2013-03-09 03:46:00,33.6,-5.3,29.68,NW,311,5.4,5.8,18,-99.99,,---,-99.99,VWS V14.01,2013-03-09 08:46:00,
2013-03-09 03:51:00,33.4,-5.5,29.68,NW,320,6.3,6.3,18,-99.99,,---,-99.99,VWS V14.01,2013-03-09 08:51:00,
2013-03-09 03:56:00,33.3,-5.7,29.68,NNW,331,5.4,5.4,18,-99.99,,---,-99.99,VWS V14.01,2013-03-09 08:56:00,
2013-03-09 04:01:00,33.1,-5.8,29.71,NW,319,4.0,5.4,18,-99.99,,---,-99.99,VWS V14.01,2013-03-09 09:01:00,
2013-03-09 04:06:00,32.7,-6.1,29.71,NW,316,4.0,4.5,18,-99.99,,---,-99.99,VWS V14.01,2013-03-09 09:06:00,
2013-03-09 04:11:00,32.7,-6.1,29.71,NW,320,4.0,5.8,18,-99.99,,---,-99.99,VWS V14.01,2013-03-09 09:11:00,
2013-03-09 04:16:00,32.5,-6.2,29.68,NW,317,0.0,0.0,18,-99.99,,---,-99.99,VWS V14.01,2013-03-09 09:16:00,
2013-03-09 04:21:00,32.4,-6.4,29.68,NNW,328,0.0,0.0,18,-99.99,,---,-99.99,VWS V14.01,2013-03-09 09:21:00,
2013-03-09 04:26:00,32.4,-6.4,29.68,NNW,340,6.3,6.3,18,-99.99,,---,-99.99,VWS V14.01,2013-03-09 09:26:00,
2013-03-09 04:31:00,32.5,-6.2,29.71,NW,319,5.4,5.4,18,-99.99,,---,-99.99,VWS V14.01,2013-03-09 09:31:00,
2013-03-09 04:36:00,32.5,-6.2,29.71,NW,307,3.6,3.6,18,-99.99,,---,-99.99,VWS V14.01,2013-03-09 09:36:00,
2013-03-09 04:41:00,32.2,-6.6,29.71,NW,306,0.0,0.0,18,-99.99,,---,-99.99,VWS V14.01,2013-03-09 09:41:00,
2013-03-09 04:46:00,32.0,-6.7,29.71,WNW,295,3.6,5.4,18,-99.99,,---,-99.99,VWS V14.01,2013-03-09 09:46:00,
2013-03-09 04:52:00,32.2,-6.6,29.71,NW,325,2.7,5.4,18,-99.99,,---,-99.99,VWS V14.01,2013-03-09 09:52:00,
2013-03-09 04:57:00,32.5,-6.2,29.71,NNW,328,5.4,5.4,18,-99.99,,---,-99.99,VWS V14.01,2013-03-09 09:57:00,
2013-03-09 05:02:00,32.9,-5.9,29.71,NNW,333,4.9,6.3,18,-99.99,,---,-99.99,VWS V14.01,2013-03-09 10:02:00,
2013-03-09 05:07:00,33.1,-5.8,29.71,NNW,339,5.4,8.3,18,-99.99,,---,-99.99,VWS V14.01,2013-03-09 10:07:00,
2013-03-09 05:12:00,33.1,-5.8,29.71,NNW,336,7.6,7.6,18,-99.99,,---,-99.99,VWS V14.01,2013-03-09 10:12:00,
2013-03-09 05:17:00,33.1,-5.8,29.71,NNW,338,6.3,6.3,18,-99.99,,---,-99.99,VWS V14.01,2013-03-09 10:17:00,
2013-03-09 05:22:00,33.1,-5.8,29.71,NNW,342,5.4,6.7,18,-99.99,,---,-99.99,VWS V14.01,2013-03-09 10:22:00,
2013-03-09 05:27:00,32.9,-5.9,29.71,NW,322,6.3,6.3,18,-99.99,,---,-99.99,VWS V14.01,2013-03-09 10:27:00,
2013-03-09 05:32:00,32.9,-5.9,29.71,NNW,327,5.8,5.8,18,-99.99,,---,-99.99,VWS V14.01,2013-03-09 10:32:00,
2013-03-09 05:37:00,33.1,-5.8,29.71,NNW,333,5.4,5.8,18,-99.99,,---,-99.99,VWS V14.01,2013-03-09 10:37:00,
2013-03-09 05:42:00,32.9,-5.9,29.71,NW,322,6.3,6.3,18,-99.99,,---,-99.99,VWS V14.01,2013-03-09 10:42:00,
2013-03-09 05:47:00,32.9,-5.9,29.71,NNW,332,5.4,5.8,18,-99.99,,---,-99.99,VWS V14.01,2013-03-09 10:47:00,
2013-03-09 05:52:00,32.7,-6.1,29.71,NNW,333,5.4,6.3,18,-99.99,,---,-99.99,VWS V14.01,2013-03-09 10:52:00,
2013-03-09 05:58:00,32.5,-6.2,29.71,NNW,334,5.8,5.8,18,-99.99,,---,-99.99,VWS V14.01,2013-03-09 10:58:00,
2013-03-09 06:03:00,32.5,-6.2,29.71,NW,320,5.8,6.3,18,-99.99,,---,-99.99,VWS V14.01,2013-03-09 11:03:00,
2013-03-09 06:08:00,32.5,-6.2,29.71,NW,314,3.6,3.6,18,-99.99,,---,-99.99,VWS V14.01,2013-03-09 11:08:00,
2013-03-09 06:13:00,32.4,-6.4,29.71,NW,315,3.6,5.8,18,-99.99,,---,-99.99,VWS V14.01,2013-03-09 11:13:00,
2013-03-09 06:18:00,32.2,-6.6,29.71,NNW,329,4.9,5.8,18,-99.99,,---,-99.99,VWS V14.01,2013-03-09 11:18:00,
2013-03-09 06:23:00,32.2,-6.6,29.71,NNW,336,5.8,6.3,18,-99.99,,---,-99.99,VWS V14.01,2013-03-09 11:23:00,
2013-03-09 06:28:00,32.0,-6.7,29.74,NW,326,4.0,4.0,18,-99.99,,---,-99.99,VWS V14.01,2013-03-09 11:28:00,
2013-03-09 06:33:00,32.2,-6.6,29.74,North,353,5.4,7.6,18,-99.99,,---,-99.99,VWS V14.01,2013-03-09 11:33:00,
2013-03-09 06:38:00,32.5,-6.2,29.74,NW,308,6.3,10.5,18,-99.99,,---,-99.99,VWS V14.01,2013-03-09 11:38:00,
2013-03-09 06:43:00,32.7,-6.1,29.74,NNW,335,8.7,10.1,18,-99.99,,---,-99.99,VWS V14.01,2013-03-09 11:43:00,
2013-03-09 06:48:00,33.1,-5.8,29.74,NNW,331,9.6,9.6,18,-99.99,,---,-99.99,VWS V14.01,2013-03-09 11:48:00,
2013-03-09 06:53:00,33.3,-5.7,29.74,NNW,329,5.4,7.6,18,-99.99,,---,-99.99,VWS V14.01,2013-03-09 11:53:00,
2013-03-09 06:59:00,33.4,-5.5,29.74,NW,325,6.3,6.3,18,-99.99,,---,-99.99,VWS V14.01,2013-03-09 11:59:00,
2013-03-09 07:04:00,33.4,-5.5,29.74,NW,313,6.3,6.3,18,-99.99,,---,-99.99,VWS V14.01,2013-03-09 12:04:00,
2013-03-09 07:09:00,33.4,-5.5,29.74,NNW,334,3.1,5.4,18,-99.99,,---,-99.99,VWS V14.01,2013-03-09 12:09:00,
2013-03-09 07:14:00,33.6,-5.3,29.74,NNW,334,4.0,5.8,18,-99.99,,---,-99.99,VWS V14.01,2013-03-09 12:14:00,
2013-03-09 07:19:00,33.8,-6.4,29.74,NNW,335,4.9,4.9,17,-99.99,,---,-99.99,VWS V14.01,2013-03-09 12:19:00,
2013-03-09 07:24:00,34.2,-6.1,29.74,NW,325,0.0,0.0,17,-99.99,,---,-99.99,VWS V14.01,2013-03-09 12:24:00,
2013-03-09 07:29:00,34.3,-5.9,29.74,NW,312,5.8,5.8,17,-99.99,,---,-99.99,VWS V14.01,2013-03-09 12:29:00,
2013-03-09 07:34:00,34.7,-5.6,29.74,NW,321,6.3,7.6,17,-99.99,,---,-99.99,VWS V14.01,2013-03-09 12:34:00,
2013-03-09 07:39:00,34.9,-5.5,29.74,NNW,335,6.3,6.3,17,-99.99,,---,-99.99,VWS V14.01,2013-03-09 12:39:00,
2013-03-09 07:44:00,35.1,-5.3,29.74,NNW,329,3.6,3.6,17,-99.99,,---,-99.99,VWS V14.01,2013-03-09 12:44:00,
2013-03-09 07:49:00,35.4,-5.1,29.74,NNW,329,3.6,4.0,17,-99.99,,---,-99.99,VWS V14.01,2013-03-09 12:49:00,
2013-03-09 07:54:00,35.6,-4.9,29.74,NW,311,5.4,5.4,17,-99.99,,---,-99.99,VWS V14.01,2013-03-09 12:54:00,
2013-03-09 07:59:00,35.6,-4.9,29.74,North,349,5.4,5.8,17,-99.99,,---,-99.99,VWS V14.01,2013-03-09 12:59:00,
2013-03-09 08:04:00,35.8,-4.8,29.74,NNW,329,5.8,5.8,17,-99.99,,---,-99.99,VWS V14.01,2013-03-09 13:04:00,
2013-03-09 08:09:00,36.0,-4.6,29.74,NNW,335,3.6,6.3,17,-99.99,,---,-99.99,VWS V14.01,2013-03-09 13:09:00,
2013-03-09 08:14:00,36.1,-4.5,29.74,NW,317,4.9,5.4,17,-99.99,,---,-99.99,VWS V14.01,2013-03-09 13:14:00,
2013-03-09 08:19:00,36.7,-4.0,29.74,NNW,330,3.6,4.0,17,-99.99,,---,-99.99,VWS V14.01,2013-03-09 13:19:00,
2013-03-09 08:25:00,36.9,-3.9,29.74,NW,311,5.8,5.8,17,-99.99,,---,-99.99,VWS V14.01,2013-03-09 13:25:00,
2013-03-09 08:30:00,37.0,-3.7,29.77,NNW,336,6.3,6.7,17,-99.99,,---,-99.99,VWS V14.01,2013-03-09 13:30:00,
2013-03-09 08:35:00,37.4,-4.7,29.77,NW,322,6.3,6.3,16,-99.99,,---,-99.99,VWS V14.01,2013-03-09 13:35:00,
2013-03-09 08:40:00,37.8,-4.4,29.77,NW,314,5.8,6.7,16,-99.99,,---,-99.99,VWS V14.01,2013-03-09 13:40:00,
2013-03-09 08:45:00,37.9,-4.2,29.74,NNW,331,8.7,8.7,16,-99.99,,---,-99.99,VWS V14.01,2013-03-09 13:45:00,
2013-03-09 08:50:00,38.1,-4.1,29.74,NW,306,8.3,8.3,16,-99.99,,---,-99.99,VWS V14.01,2013-03-09 13:50:00,
2013-03-09 08:55:00,38.3,-4.0,29.74,NNW,328,6.7,6.7,16,-99.99,,---,-99.99,VWS V14.01,2013-03-09 13:55:00,
2013-03-09 09:00:00,38.7,-3.7,29.77,NW,326,4.9,7.6,16,-99.99,,---,-99.99,VWS V14.01,2013-03-09 14:00:00,
2013-03-09 09:05:00,38.8,-3.5,29.77,NNW,328,9.6,11.0,16,-99.99,,---,-99.99,VWS V14.01,2013-03-09 14:05:00,
2013-03-09 09:10:00,39.0,-3.4,29.77,NW,314,8.3,8.3,16,-99.99,,---,-99.99,VWS V14.01,2013-03-09 14:10:00,
2013-03-09 09:15:00,39.4,-3.1,29.77,NW,311,0.0,0.0,16,-99.99,,---,-99.99,VWS V14.01,2013-03-09 14:15:00,
2013-03-09 09:20:00,39.9,-2.6,29.77,NNW,333,8.1,8.1,16,-99.99,,---,-99.99,VWS V14.01,2013-03-09 14:20:00,
2013-03-09 09:25:00,40.3,-2.3,29.77,NW,324,8.1,8.1,16,-99.99,,---,-99.99,VWS V14.01,2013-03-09 14:25:00,
2013-03-09 09:30:00,40.5,-2.2,29.77,NW,321,7.6,10.1,16,-99.99,,---,-99.99,VWS V14.01,2013-03-09 14:30:00,
2013-03-09 09:36:00,40.5,-2.2,29.77,NNE,27,2.7,6.3,16,-99.99,,---,-99.99,VWS V14.01,2013-03-09 14:36:00,
2013-03-09 09:41:00,41.0,-1.7,29.77,NW,325,7.6,8.7,16,-99.99,,---,-99.99,VWS V14.01,2013-03-09 14:41:00,
2013-03-09 09:46:00,41.2,-1.6,29.77,NW,324,8.3,10.1,16,-99.99,,---,-99.99,VWS V14.01,2013-03-09 14:46:00,
2013-03-09 09:51:00,41.4,-1.5,29.77,NNW,327,8.3,8.3,16,-99.99,,---,-99.99,VWS V14.01,2013-03-09 14:51:00,
2013-03-09 09:56:00,41.5,-1.3,29.77,NNW,327,4.0,5.4,16,-99.99,,---,-99.99,VWS V14.01,2013-03-09 14:56:00,
2013-03-09 10:01:00,41.9,-1.0,29.77,NW,326,2.7,6.3,16,-99.99,,---,-99.99,VWS V14.01,2013-03-09 15:01:00,
2013-03-09 10:06:00,42.3,-0.7,29.77,NNW,334,7.6,8.7,16,-99.99,,---,-99.99,VWS V14.01,2013-03-09 15:06:00,
2013-03-09 10:11:00,42.6,-0.4,29.77,NNW,334,5.4,5.4,16,-99.99,,---,-99.99,VWS V14.01,2013-03-09 15:11:00,
2013-03-09 10:16:00,43.0,-1.5,29.77,North,350,4.0,6.3,15,-99.99,,---,-99.99,VWS V14.01,2013-03-09 15:16:00,
2013-03-09 10:21:00,43.3,-1.2,29.77,NNW,333,8.1,8.3,15,-99.99,,---,-99.99,VWS V14.01,2013-03-09 15:21:00,
2013-03-09 10:26:00,43.7,-0.9,29.77,NNW,346,7.2,8.7,15,-99.99,,---,-99.99,VWS V14.01,2013-03-09 15:26:00,
2013-03-09 10:31:00,44.2,-0.5,29.77,NNW,344,5.4,8.3,15,-99.99,,---,-99.99,VWS V14.01,2013-03-09 15:31:00,
2013-03-09 10:36:00,44.8,0.0,29.77,NW,320,3.1,6.3,15,-99.99,,---,-99.99,VWS V14.01,2013-03-09 15:36:00,
2013-03-09 10:41:00,45.1,0.3,29.77,NW,316,2.2,7.2,15,-99.99,,---,-99.99,VWS V14.01,2013-03-09 15:41:00,
2013-03-09 10:47:00,45.1,0.3,29.74,WNW,296,5.4,5.4,15,-99.99,,---,-99.99,VWS V14.01,2013-03-09 15:47:00,
2013-03-09 10:52:00,45.1,0.3,29.74,NW,308,6.7,6.7,15,-99.99,,---,-99.99,VWS V14.01,2013-03-09 15:52:00,
2013-03-09 10:57:00,45.1,0.3,29.74,NW,320,3.6,5.8,15,-99.99,,---,-99.99,VWS V14.01,2013-03-09 15:57:00,
2013-03-09 11:02:00,46.4,-0.2,29.77,NNW,331,6.3,8.3,14,-99.99,,---,-99.99,VWS V14.01,2013-03-09 16:02:00,
2013-03-09 11:07:00,46.6,-0.1,29.77,NNW,330,5.4,5.4,14,-99.99,,---,-99.99,VWS V14.01,2013-03-09 16:07:00,
2013-03-09 11:12:00,46.9,0.2,29.77,NW,322,5.8,8.1,14,-99.99,,---,-99.99,VWS V14.01,2013-03-09 16:12:00,
2013-03-09 11:17:00,47.3,0.5,29.74,NW,310,5.4,6.3,14,-99.99,,---,-99.99,VWS V14.01,2013-03-09 16:17:00,
2013-03-09 11:22:00,47.5,0.7,29.74,NW,326,4.5,4.5,14,-99.99,,---,-99.99,VWS V14.01,2013-03-09 16:22:00,
2013-03-09 11:27:00,47.8,1.0,29.74,WNW,302,4.9,6.3,14,-99.99,,---,-99.99,VWS V14.01,2013-03-09 16:27:00,
2013-03-09 11:32:00,48.2,1.2,29.77,NNW,327,5.4,6.3,14,-99.99,,---,-99.99,VWS V14.01,2013-03-09 16:32:00,
2013-03-09 11:37:00,48.6,1.5,29.77,NNE,12,0.0,3.6,14,-99.99,,---,-99.99,VWS V14.01,2013-03-09 16:37:00,
2013-03-09 11:42:00,49.1,2.0,29.74,NNW,341,7.6,7.6,14,-99.99,,---,-99.99,VWS V14.01,2013-03-09 16:42:00,
2013-03-09 11:48:00,49.3,2.1,29.74,WNW,302,2.7,5.8,14,-99.99,,---,-99.99,VWS V14.01,2013-03-09 16:48:00,
2013-03-09 11:53:00,49.5,2.3,29.74,NNW,335,0.0,5.8,14,-99.99,,---,-99.99,VWS V14.01,2013-03-09 16:53:00,
2013-03-09 11:58:00,49.5,2.3,29.74,NNW,335,4.0,6.3,14,-99.99,,---,-99.99,VWS V14.01,2013-03-09 16:58:00,
2013-03-09 12:03:00,49.8,2.5,29.74,West,280,0.0,0.0,14,-99.99,,---,-99.99,VWS V14.01,2013-03-09 17:03:00,
2013-03-09 12:08:00,50.4,3.0,29.74,WNW,289,3.1,3.6,14,-99.99,,---,-99.99,VWS V14.01,2013-03-09 17:08:00,
2013-03-09 12:13:00,50.9,3.4,29.74,NW,305,3.6,5.8,14,-99.99,,---,-99.99,VWS V14.01,2013-03-09 17:13:00,
2013-03-09 12:18:00,50.7,3.3,29.74,NW,314,3.6,4.9,14,-99.99,,---,-99.99,VWS V14.01,2013-03-09 17:18:00,
2013-03-09 12:23:00,50.7,3.3,29.74,West,260,3.6,4.0,14,-99.99,,---,-99.99,VWS V14.01,2013-03-09 17:23:00,
2013-03-09 12:28:00,50.7,3.3,29.71,West,275,3.6,3.6,14,-99.99,,---,-99.99,VWS V14.01,2013-03-09 17:28:00,
2013-03-09 12:33:00,50.7,3.3,29.71,NNW,338,4.0,5.4,14,-99.99,,---,-99.99,VWS V14.01,2013-03-09 17:33:00,
2013-03-09 12:38:00,51.1,3.6,29.71,NW,311,0.0,0.0,14,-99.99,,---,-99.99,VWS V14.01,2013-03-09 17:38:00,
2013-03-09 12:43:00,51.8,2.5,29.71,NNE,28,0.0,0.0,13,-99.99,,---,-99.99,VWS V14.01,2013-03-09 17:43:00,
2013-03-09 12:48:00,52.2,2.8,29.71,NW,322,3.1,3.1,13,-99.99,,---,-99.99,VWS V14.01,2013-03-09 17:48:00,
2013-03-09 12:54:00,52.7,3.2,29.71,NNW,334,5.4,8.1,13,-99.99,,---,-99.99,VWS V14.01,2013-03-09 17:54:00,
2013-03-09 13:03:00,53.1,3.5,29.71,NW,326,7.6,7.6,13,-99.99,,---,-99.99,VWS V14.01,2013-03-09 18:03:00,
2013-03-09 13:08:00,53.2,3.7,29.71,NW,325,0.0,3.6,13,-99.99,,---,-99.99,VWS V14.01,2013-03-09 18:08:00,
2013-03-09 13:13:00,53.2,3.7,29.71,NNW,332,6.3,6.3,13,-99.99,,---,-99.99,VWS V14.01,2013-03-09 18:13:00,
2013-03-09 13:18:00,53.6,4.0,29.71,NW,310,2.2,5.4,13,-99.99,,---,-99.99,VWS V14.01,2013-03-09 18:18:00,
2013-03-09 13:23:00,54.1,4.4,29.71,West,279,2.7,5.8,13,-99.99,,---,-99.99,VWS V14.01,2013-03-09 18:23:00,
2013-03-09 13:28:00,54.3,4.5,29.68,NNW,342,0.0,0.0,13,-99.99,,---,-99.99,VWS V14.01,2013-03-09 18:28:00,
2013-03-09 13:33:00,54.9,5.0,29.68,West,277,3.6,6.3,13,-99.99,,---,-99.99,VWS V14.01,2013-03-09 18:33:00,
2013-03-09 13:38:00,55.0,5.1,29.68,NNW,341,0.0,0.0,13,-99.99,,---,-99.99,VWS V14.01,2013-03-09 18:38:00,
2013-03-09 13:43:00,55.0,5.1,29.68,NW,312,2.2,2.2,13,-99.99,,---,-99.99,VWS V14.01,2013-03-09 18:43:00,
2013-03-09 13:48:00,55.0,5.1,29.68,NW,312,2.2,2.2,13,-99.99,,---,-99.99,VWS V14.01,2013-03-09 18:48:00,
2013-03-09 13:53:00,55.6,3.8,29.68,NW,312,0.0,2.2,12,-99.99,,---,-99.99,VWS V14.01,2013-03-09 18:53:00,
2013-03-09 13:58:00,55.9,4.1,29.68,NW,312,0.0,0.0,12,-99.99,,---,-99.99,VWS V14.01,2013-03-09 18:58:00,
2013-03-09 14:03:00,56.1,4.2,29.68,North,6,0.0,0.0,12,-99.99,,---,-99.99,VWS V14.01,2013-03-09 19:03:00,
2013-03-09 14:08:00,56.1,4.2,29.68,WNW,292,5.4,5.4,12,-99.99,,---,-99.99,VWS V14.01,2013-03-09 19:08:00,
2013-03-09 14:13:00,56.3,4.4,29.68,NNW,329,6.3,6.3,12,-99.99,,---,-99.99,VWS V14.01,2013-03-09 19:13:00,
2013-03-09 14:19:00,56.7,4.6,29.68,NNW,329,6.3,6.3,12,-99.99,,---,-99.99,VWS V14.01,2013-03-09 19:19:00,
2013-03-09 14:24:00,56.8,4.8,29.68,NNW,329,6.3,6.3,12,-99.99,,---,-99.99,VWS V14.01,2013-03-09 19:24:00,
2013-03-09 14:29:00,57.2,5.1,29.68,West,259,0.0,6.3,12,-99.99,,---,-99.99,VWS V14.01,2013-03-09 19:29:00,
2013-03-09 14:34:00,57.2,5.1,29.68,NW,312,0.0,0.0,12,-99.99,,---,-99.99,VWS V14.01,2013-03-09 19:34:00,
2013-03-09 14:39:00,57.4,5.2,29.68,NNW,345,3.6,3.6,12,-99.99,,---,-99.99,VWS V14.01,2013-03-09 19:39:00,
2013-03-09 14:44:00,57.6,5.3,29.68,NNW,345,3.6,3.6,12,-99.99,,---,-99.99,VWS V14.01,2013-03-09 19:44:00,
2013-03-09 14:49:00,57.7,5.5,29.68,NNW,339,0.0,0.0,12,-99.99,,---,-99.99,VWS V14.01,2013-03-09 19:49:00,
2013-03-09 14:54:00,57.7,5.5,29.68,NNW,331,3.1,5.8,12,-99.99,,---,-99.99,VWS V14.01,2013-03-09 19:54:00,
2013-03-09 14:59:00,57.7,5.5,29.68,WNW,301,4.0,6.3,12,-99.99,,---,-99.99,VWS V14.01,2013-03-09 19:59:00,
2013-03-09 15:04:00,57.9,5.6,29.68,NNW,342,0.0,0.0,12,-99.99,,---,-99.99,VWS V14.01,2013-03-09 20:04:00,
2013-03-09 15:10:00,57.9,5.6,29.68,NNW,334,4.0,8.3,12,-99.99,,---,-99.99,VWS V14.01,2013-03-09 20:10:00,
2013-03-09 15:15:00,58.1,5.8,29.68,WSW,257,5.4,5.4,12,-99.99,,---,-99.99,VWS V14.01,2013-03-09 20:15:00,
2013-03-09 15:20:00,58.5,6.1,29.68,NW,313,5.8,8.1,12,-99.99,,---,-99.99,VWS V14.01,2013-03-09 20:20:00,
2013-03-09 15:25:00,58.3,5.9,29.68,NW,315,4.0,11.0,12,-99.99,,---,-99.99,VWS V14.01,2013-03-09 20:25:00,
2013-03-09 15:30:00,58.5,6.1,29.68,NW,315,5.4,8.7,12,-99.99,,---,-99.99,VWS V14.01,2013-03-09 20:30:00,
2013-03-09 15:35:00,58.8,6.3,29.68,NNW,331,6.3,6.3,12,-99.99,,---,-99.99,VWS V14.01,2013-03-09 20:35:00,
2013-03-09 15:40:00,58.8,6.3,29.68,North,357,5.8,5.8,12,-99.99,,---,-99.99,VWS V14.01,2013-03-09 20:40:00,
2013-03-09 15:50:00,59.0,6.5,29.68,NW,324,5.4,5.8,12,-99.99,,---,-99.99,VWS V14.01,2013-03-09 20:50:00,
2013-03-09 15:55:00,58.8,6.3,29.68,NW,326,4.9,4.9,12,-99.99,,---,-99.99,VWS V14.01,2013-03-09 20:55:00,
2013-03-09 16:00:00,59.0,6.5,29.68,NW,316,6.3,6.3,12,-99.99,,---,-99.99,VWS V14.01,2013-03-09 21:00:00,
2013-03-09 16:05:00,59.2,6.6,29.68,NW,316,3.6,3.6,12,-99.99,,---,-99.99,VWS V14.01,2013-03-09 21:05:00,
2013-03-09 16:10:00,59.2,6.6,29.68,NW,317,8.1,8.1,12,-99.99,,---,-99.99,VWS V14.01,2013-03-09 21:10:00,
2013-03-09 16:15:00,59.0,6.5,29.68,NW,324,7.6,7.6,12,-99.99,,---,-99.99,VWS V14.01,2013-03-09 21:15:00,
2013-03-09 16:20:00,59.0,6.5,29.68,NNW,333,5.4,5.4,12,-99.99,,---,-99.99,VWS V14.01,2013-03-09 21:20:00,
2013-03-09 16:25:00,59.0,6.5,29.68,NW,325,5.4,5.8,12,-99.99,,---,-99.99,VWS V14.01,2013-03-09 21:25:00,
2013-03-09 16:30:00,59.2,6.6,29.68,NW,307,4.9,6.3,12,-99.99,,---,-99.99,VWS V14.01,2013-03-09 21:30:00,
2013-03-09 16:36:00,59.2,6.6,29.68,NW,322,0.0,3.1,12,-99.99,,---,-99.99,VWS V14.01,2013-03-09 21:36:00,
2013-03-09 16:41:00,59.4,6.8,29.68,NW,314,0.0,0.0,12,-99.99,,---,-99.99,VWS V14.01,2013-03-09 21:41:00,
2013-03-09 16:46:00,59.4,6.8,29.68,NW,326,4.9,4.9,12,-99.99,,---,-99.99,VWS V14.01,2013-03-09 21:46:00,
2013-03-09 16:51:00,59.4,6.8,29.68,NW,324,3.1,3.1,12,-99.99,,---,-99.99,VWS V14.01,2013-03-09 21:51:00,
2013-03-09 16:56:00,59.4,6.8,29.68,NW,320,0.0,0.0,12,-99.99,,---,-99.99,VWS V14.01,2013-03-09 21:56:00,
2013-03-09 17:01:00,59.2,6.6,29.68,NW,320,0.0,0.0,12,-99.99,,---,-99.99,VWS V14.01,2013-03-09 22:01:00,
2013-03-09 17:06:00,59.0,6.5,29.68,WNW,299,4.9,4.9,12,-99.99,,---,-99.99,VWS V14.01,2013-03-09 22:06:00,
2013-03-09 17:11:00,58.8,6.3,29.68,NW,321,2.7,4.9,12,-99.99,,---,-99.99,VWS V14.01,2013-03-09 22:11:00,
2013-03-09 17:16:00,58.6,6.2,29.68,NW,325,3.1,3.6,12,-99.99,,---,-99.99,VWS V14.01,2013-03-09 22:16:00,
2013-03-09 17:21:00,58.6,6.2,29.68,NW,316,0.0,0.0,12,-99.99,,---,-99.99,VWS V14.01,2013-03-09 22:21:00,
2013-03-09 17:26:00,58.6,6.2,29.68,NW,321,0.0,0.0,12,-99.99,,---,-99.99,VWS V14.01,2013-03-09 22:26:00,
2013-03-09 17:32:00,58.5,6.1,29.68,NW,321,0.0,0.0,12,-99.99,,---,-99.99,VWS V14.01,2013-03-09 22:32:00,
2013-03-09 17:37:00,58.1,5.8,29.68,NW,321,0.0,0.0,12,-99.99,,---,-99.99,VWS V14.01,2013-03-09 22:37:00,
2013-03-09 17:42:00,57.7,5.5,29.68,NW,321,0.0,0.0,12,-99.99,,---,-99.99,VWS V14.01,2013-03-09 22:42:00,
2013-03-09 17:47:00,57.6,5.3,29.68,NW,321,0.0,0.0,12,-99.99,,---,-99.99,VWS V14.01,2013-03-09 22:47:00,
2013-03-09 17:52:00,57.4,5.2,29.68,NW,321,0.0,0.0,12,-99.99,,---,-99.99,VWS V14.01,2013-03-09 22:52:00,
2013-03-09 17:57:00,57.0,4.9,29.68,NW,321,0.0,0.0,12,-99.99,,---,-99.99,VWS V14.01,2013-03-09 22:57:00,
2013-03-09 18:02:00,56.8,4.8,29.68,NW,321,0.0,0.0,12,-99.99,,---,-99.99,VWS V14.01,2013-03-09 23:02:00,
2013-03-09 18:07:00,56.5,4.5,29.68,NW,321,0.0,0.0,12,-99.99,,---,-99.99,VWS V14.01,2013-03-09 23:07:00,
2013-03-09 18:12:00,56.1,4.2,29.68,NW,321,0.0,0.0,12,-99.99,,---,-99.99,VWS V14.01,2013-03-09 23:12:00,
2013-03-09 18:17:00,55.6,3.8,29.68,NW,321,0.0,0.0,12,-99.99,,---,-99.99,VWS V14.01,2013-03-09 23:17:00,
2013-03-09 18:22:00,54.9,5.0,29.68,NW,321,0.0,0.0,13,-99.99,,---,-99.99,VWS V14.01,2013-03-09 23:22:00,
2013-03-09 18:27:00,54.3,4.5,29.68,NW,321,0.0,0.0,13,-99.99,,---,-99.99,VWS V14.01,2013-03-09 23:27:00,
2013-03-09 18:32:00,53.8,4.1,29.68,NW,321,0.0,0.0,13,-99.99,,---,-99.99,VWS V14.01,2013-03-09 23:32:00,
2013-03-09 18:37:00,53.4,3.8,29.68,WNW,300,0.0,0.0,13,-99.99,,---,-99.99,VWS V14.01,2013-03-09 23:37:00,
2013-03-09 18:42:00,53.2,3.7,29.71,WNW,300,0.0,0.0,13,-99.99,,---,-99.99,VWS V14.01,2013-03-09 23:42:00,
2013-03-09 18:48:00,53.1,3.5,29.71,WNW,299,0.0,0.0,13,-99.99,,---,-99.99,VWS V14.01,2013-03-09 23:48:00,
2013-03-09 18:53:00,53.1,3.5,29.71,WNW,292,0.0,0.0,13,-99.99,,---,-99.99,VWS V14.01,2013-03-09 23:53:00,
2013-03-09 18:58:00,52.9,3.4,29.68,West,278,0.0,0.0,13,-99.99,,---,-99.99,VWS V14.01,2013-03-09 23:58:00,
2013-03-09 19:03:00,52.9,3.4,29.68,WNW,283,0.0,0.0,13,-99.99,,---,-99.99,VWS V14.01,2013-03-10 00:03:00,
2013-03-09 19:08:00,52.5,3.1,29.68,WNW,284,0.0,0.0,13,-99.99,,---,-99.99,VWS V14.01,2013-03-10 00:08:00,
2013-03-09 19:13:00,52.3,3.0,29.71,WNW,293,0.0,0.0,13,-99.99,,---,-99.99,VWS V14.01,2013-03-10 00:13:00,
2013-03-09 19:18:00,52.2,2.8,29.71,WNW,294,0.0,0.0,13,-99.99,,---,-99.99,VWS V14.01,2013-03-10 00:18:00,
2013-03-09 19:23:00,52.0,2.7,29.71,NW,313,0.0,0.0,13,-99.99,,---,-99.99,VWS V14.01,2013-03-10 00:23:00,
2013-03-09 19:28:00,52.0,2.7,29.71,WNW,293,0.0,0.0,13,-99.99,,---,-99.99,VWS V14.01,2013-03-10 00:28:00,
2013-03-09 19:33:00,51.6,4.0,29.71,NW,318,0.0,0.0,14,-99.99,,---,-99.99,VWS V14.01,2013-03-10 00:33:00,
2013-03-09 19:38:00,51.4,3.8,29.71,NNW,327,0.0,0.0,14,-99.99,,---,-99.99,VWS V14.01,2013-03-10 00:38:00,
2013-03-09 19:44:00,51.1,3.6,29.71,NW,323,0.0,0.0,14,-99.99,,---,-99.99,VWS V14.01,2013-03-10 00:44:00,
2013-03-09 19:49:00,50.9,3.4,29.71,NNW,344,0.0,0.0,14,-99.99,,---,-99.99,VWS V14.01,2013-03-10 00:49:00,
2013-03-09 19:54:00,50.5,3.1,29.71,NW,312,0.0,0.0,14,-99.99,,---,-99.99,VWS V14.01,2013-03-10 00:54:00,
2013-03-09 19:59:00,50.4,3.0,29.71,NW,312,0.0,0.0,14,-99.99,,---,-99.99,VWS V14.01,2013-03-10 00:59:00,
2013-03-09 20:04:00,50.0,2.7,29.71,NW,313,0.0,0.0,14,-99.99,,---,-99.99,VWS V14.01,2013-03-10 01:04:00,
2013-03-09 20:09:00,50.0,2.7,29.71,NW,313,0.0,0.0,14,-99.99,,---,-99.99,VWS V14.01,2013-03-10 01:09:00,
2013-03-09 20:14:00,49.8,2.5,29.71,NW,313,0.0,0.0,14,-99.99,,---,-99.99,VWS V14.01,2013-03-10 01:14:00,
2013-03-09 20:19:00,48.9,1.8,29.71,NW,313,0.0,0.0,14,-99.99,,---,-99.99,VWS V14.01,2013-03-10 01:19:00,
2013-03-09 20:24:00,48.4,1.4,29.71,NW,313,0.0,0.0,14,-99.99,,---,-99.99,VWS V14.01,2013-03-10 01:24:00,
2013-03-09 20:30:00,48.0,1.1,29.71,NW,313,0.0,0.0,14,-99.99,,---,-99.99,VWS V14.01,2013-03-10 01:30:00,
2013-03-09 20:35:00,47.7,0.8,29.71,NW,313,0.0,0.0,14,-99.99,,---,-99.99,VWS V14.01,2013-03-10 01:35:00,
2013-03-09 20:40:00,47.3,0.5,29.71,NW,313,0.0,0.0,14,-99.99,,---,-99.99,VWS V14.01,2013-03-10 01:40:00,
2013-03-09 20:45:00,47.1,0.4,29.71,NW,313,0.0,0.0,14,-99.99,,---,-99.99,VWS V14.01,2013-03-10 01:45:00,
2013-03-09 20:50:00,46.8,0.1,29.71,NW,313,0.0,0.0,14,-99.99,,---,-99.99,VWS V14.01,2013-03-10 01:50:00,
2013-03-09 20:55:00,46.9,0.2,29.71,NW,313,0.0,0.0,14,-99.99,,---,-99.99,VWS V14.01,2013-03-10 01:55:00,
2013-03-09 21:01:00,46.9,0.2,29.71,NW,313,0.0,0.0,14,-99.99,,---,-99.99,VWS V14.01,2013-03-10 02:01:00,
2013-03-09 21:06:00,46.6,-0.1,29.71,NW,313,0.0,0.0,14,-99.99,,---,-99.99,VWS V14.01,2013-03-10 02:06:00,
2013-03-09 21:11:00,46.0,1.0,29.71,NW,313,0.0,0.0,15,-99.99,,---,-99.99,VWS V14.01,2013-03-10 02:11:00,
2013-03-09 21:23:00,44.8,0.0,29.71,NW,313,0.0,0.0,15,-99.99,,---,-99.99,VWS V14.01,2013-03-10 02:23:00,
2013-03-09 21:28:00,44.6,-0.2,29.71,NW,313,0.0,0.0,15,-99.99,,---,-99.99,VWS V14.01,2013-03-10 02:28:00,
2013-03-09 21:33:00,44.6,-0.2,29.71,NW,313,0.0,0.0,15,-99.99,,---,-99.99,VWS V14.01,2013-03-10 02:33:00,
2013-03-09 21:38:00,44.6,-0.2,29.71,NW,313,0.0,0.0,15,-99.99,,---,-99.99,VWS V14.01,2013-03-10 02:38:00,
2013-03-09 21:43:00,44.4,-0.3,29.71,NW,313,0.0,0.0,15,-99.99,,---,-99.99,VWS V14.01,2013-03-10 02:43:00,
2013-03-09 21:49:00,44.6,-0.2,29.71,NW,313,0.0,0.0,15,-99.99,,---,-99.99,VWS V14.01,2013-03-10 02:49:00,
2013-03-09 21:54:00,44.6,-0.2,29.71,NW,313,0.0,0.0,15,-99.99,,---,-99.99,VWS V14.01,2013-03-10 02:54:00,
2013-03-09 21:59:00,44.1,-0.6,29.71,NW,313,0.0,0.0,15,-99.99,,---,-99.99,VWS V14.01,2013-03-10 02:59:00,
2013-03-09 22:06:00,42.8,-1.6,29.71,NW,313,0.0,0.0,15,-99.99,,---,-99.99,VWS V14.01,2013-03-10 03:06:00,
2013-03-09 22:11:00,42.1,-0.9,29.71,NW,313,0.0,0.0,16,-99.99,,---,-99.99,VWS V14.01,2013-03-10 03:11:00,
2013-03-09 22:16:00,41.5,-1.3,29.71,NW,313,0.0,0.0,16,-99.99,,---,-99.99,VWS V14.01,2013-03-10 03:16:00,
2013-03-09 22:21:00,41.2,-1.6,29.71,NW,313,0.0,0.0,16,-99.99,,---,-99.99,VWS V14.01,2013-03-10 03:21:00,
2013-03-09 22:26:00,41.2,-1.6,29.71,NW,313,0.0,0.0,16,-99.99,,---,-99.99,VWS V14.01,2013-03-10 03:26:00,
2013-03-09 22:32:00,41.2,-1.6,29.71,NW,313,0.0,0.0,16,-99.99,,---,-99.99,VWS V14.01,2013-03-10 03:32:00,
2013-03-09 22:37:00,41.2,-1.6,29.71,NW,313,0.0,0.0,16,-99.99,,---,-99.99,VWS V14.01,2013-03-10 03:37:00,
2013-03-09 22:42:00,41.2,-1.6,29.71,NW,313,0.0,0.0,16,-99.99,,---,-99.99,VWS V14.01,2013-03-10 03:42:00,
2013-03-09 22:47:00,40.8,-1.9,29.71,NW,313,0.0,0.0,16,-99.99,,---,-99.99,VWS V14.01,2013-03-10 03:47:00,
2013-03-09 22:52:00,40.5,-2.2,29.71,NW,313,0.0,0.0,16,-99.99,,---,-99.99,VWS V14.01,2013-03-10 03:52:00,
2013-03-09 22:57:00,40.6,-2.0,29.71,NW,313,0.0,0.0,16,-99.99,,---,-99.99,VWS V14.01,2013-03-10 03:57:00,
2013-03-09 23:02:00,40.5,-2.2,29.71,NW,313,0.0,0.0,16,-99.99,,---,-99.99,VWS V14.01,2013-03-10 04:02:00,
2013-03-09 23:07:00,40.3,-2.3,29.71,NW,313,0.0,0.0,16,-99.99,,---,-99.99,VWS V14.01,2013-03-10 04:07:00,
2013-03-09 23:12:00,40.3,-2.3,29.71,NW,313,0.0,0.0,16,-99.99,,---,-99.99,VWS V14.01,2013-03-10 04:12:00,
2013-03-09 23:17:00,40.3,-2.3,29.71,NW,313,0.0,0.0,16,-99.99,,---,-99.99,VWS V14.01,2013-03-10 04:17:00,
2013-03-09 23:22:00,40.3,-2.3,29.71,NW,313,0.0,0.0,16,-99.99,,---,-99.99,VWS V14.01,2013-03-10 04:22:00,
2013-03-09 23:28:00,39.9,-2.6,29.71,NW,313,0.0,0.0,16,-99.99,,---,-99.99,VWS V14.01,2013-03-10 04:28:00,
2013-03-09 23:33:00,39.7,-2.8,29.71,NW,313,0.0,0.0,16,-99.99,,---,-99.99,VWS V14.01,2013-03-10 04:33:00,
2013-03-09 23:38:00,39.4,-3.1,29.71,NW,313,0.0,0.0,16,-99.99,,---,-99.99,VWS V14.01,2013-03-10 04:38:00,
2013-03-09 23:43:00,39.2,-3.2,29.71,NW,313,0.0,0.0,16,-99.99,,---,-99.99,VWS V14.01,2013-03-10 04:43:00,
2013-03-09 23:48:00,39.0,-3.4,29.71,NW,313,0.0,0.0,16,-99.99,,---,-99.99,VWS V14.01,2013-03-10 04:48:00,
2013-03-09 23:53:00,38.7,-3.7,29.71,NW,313,0.0,0.0,16,-99.99,,---,-99.99,VWS V14.01,2013-03-10 04:53:00,
2013-03-09 23:58:00,38.5,-3.8,29.71,NW,313,0.0,0.0,16,-99.99,,---,-99.99,VWS V14.01,2013-03-10 04:58:00,